Anaktuvuk Pass, AK

9:17 AM AKDT on April 24, 2018 (GMT -0800)
Anaktuvuk Pass

Weather History for PAKP - March, 2013

Change the Weather History Date:

Thursday, March 21, 2013

  Actual Average Record
Temperature  
Mean Temperature -14 °F -  
Max Temperature -9 °F 0 °F 35 °F (1998)
Min Temperature -18 °F -11 °F -32 °F (2009)
Degree Days  
Heating Degree Days 78    
Moisture  
Dew Point -24 °F    
Average Humidity 61    
Maximum Humidity 65    
Minimum Humidity 54    
Precipitation  
Precipitation 0.00 in - - ()
Sea Level Pressure  
Sea Level Pressure 29.73 in    
Wind  
Wind Speed 7 mph (NE)    
Max Wind Speed 12 mph    
Max Gust Speed -    
Visibility 5 miles    
Events      
Averages and records for this station are not official NWS values.
T = Trace of Precipitation, MM = Missing Value Source: NWS Daily Summary

Daily Weather History Graph

Daily Weather History Graph

Search for Another Location

Airport or City:

Astronomy

Mar. 21, 2013 Rise Set
Actual Time 8:00 AM AKDT 8:29 PM AKDT
Civil Twilight 7:04 AM AKDT 9:26 PM AKDT
Nautical Twilight 5:52 AM AKDT 10:38 PM AKDT
Astronomical Twilight 4:22 AM AKDT 12:11 AM AKDT
Moon 12:43 PM AKDT (3/21) 6:59 AM AKDT (3/21)
Length of Visible Light 14h 22m
Length of Day
12h 29m
Waxing Gibbous, 70% of the Moon is Illuminated
Mar 21
Waxing Gibbous
Mar 27
Full
Apr 2
Last Quarter
Apr 10
New
Apr 18
First Quarter

Hourly Weather History & Observations

Time (AKDT) Temp. Windchill Dew Point Humidity Pressure Visibility Wind Dir Wind Speed Gust Speed Precip Events Conditions
12:16 AM -9.4 °F -24.3 °F -18.4 °F 65% 29.63 in 9.0 mi NE 6.9 mph - N/A   Overcast
12:36 AM -9.4 °F -24.3 °F -18.4 °F 65% 29.63 in 10.0 mi NE 6.9 mph - N/A   Overcast
12:56 AM -9.4 °F -20.9 °F -18.4 °F 65% 29.63 in 5.0 mi NNE 4.6 mph - N/A   Overcast
1:16 AM -9.4 °F -24.3 °F -18.4 °F 65% 29.63 in 6.0 mi NNE 6.9 mph - N/A   Overcast
1:36 AM -9.4 °F -22.7 °F -18.4 °F 65% 29.63 in 5.0 mi NE 5.8 mph - N/A   Overcast
1:56 AM -9.4 °F -25.6 °F -20.2 °F 59% 29.63 in 4.0 mi NE 8.1 mph - N/A   Overcast
2:16 AM -9.4 °F -24.3 °F -20.2 °F 59% 29.63 in 5.0 mi NNE 6.9 mph - N/A   Overcast
2:36 AM -11.2 °F -27.8 °F -20.2 °F 64% 29.63 in 10.0 mi NE 8.1 mph - N/A   Overcast
2:56 AM -11.2 °F -29.0 °F -20.2 °F 64% 29.64 in 9.0 mi NE 9.2 mph - N/A   Overcast
3:16 AM -11.2 °F -29.0 °F -20.2 °F 64% 29.64 in 5.0 mi NE 9.2 mph - N/A   Overcast
3:36 AM -11.2 °F -30.1 °F -20.2 °F 64% 29.64 in 5.0 mi NE 10.4 mph - N/A   Overcast
3:56 AM -11.2 °F -29.0 °F -20.2 °F 64% 29.65 in 5.0 mi NE 9.2 mph - N/A   Overcast
4:16 AM -11.2 °F -27.8 °F -20.2 °F 64% 29.65 in 3.0 mi NNE 8.1 mph - N/A   Overcast
4:36 AM -11.2 °F -26.4 °F -20.2 °F 64% 29.65 in 2.5 mi NNE 6.9 mph - N/A   Overcast
4:56 AM -11.2 °F -26.4 °F -20.2 °F 64% 29.66 in 3.0 mi NE 6.9 mph - N/A   Overcast
5:16 AM -11.2 °F -27.8 °F -22.0 °F 59% 29.66 in 4.0 mi NE 8.1 mph - N/A   Overcast
5:36 AM -11.2 °F -30.1 °F -22.0 °F 59% 29.66 in 3.0 mi NE 10.4 mph - N/A   Overcast
5:56 AM -11.2 °F -29.0 °F -23.8 °F 54% 29.66 in 4.0 mi NE 9.2 mph - N/A   Overcast
6:16 AM - - - N/A% 29.65 in 5.0 mi NE 9.2 mph - N/A   Overcast
6:36 AM - - - N/A% 29.66 in 8.0 mi NE 9.2 mph - N/A   Overcast
6:56 AM -13.0 °F -25.1 °F -23.8 °F 59% 29.67 in 7.0 mi North 4.6 mph - N/A   Overcast
7:16 AM -14.8 °F -32.2 °F -23.8 °F 64% 29.68 in 10.0 mi NNE 8.1 mph - N/A   Overcast
7:36 AM -14.8 °F -32.2 °F -23.8 °F 64% 29.68 in 10.0 mi NNE 8.1 mph - N/A   Overcast
7:56 AM -14.8 °F -32.2 °F -25.6 °F 58% 29.68 in 10.0 mi NE 8.1 mph - N/A   Overcast
8:16 AM -14.8 °F -35.6 °F -23.8 °F 64% 29.69 in 10.0 mi NE 11.5 mph - N/A   Overcast
8:36 AM -14.8 °F -33.5 °F -23.8 °F 64% 29.69 in 10.0 mi NNE 9.2 mph - N/A   Overcast
8:56 AM -14.8 °F -35.6 °F -25.6 °F 58% 29.70 in 10.0 mi NE 11.5 mph - N/A   Overcast
9:16 AM -14.8 °F -34.6 °F -25.6 °F 58% 29.71 in 10.0 mi NE 10.4 mph - N/A   Overcast
9:36 AM -16.6 °F -34.4 °F -25.6 °F 64% 29.71 in 9.0 mi NE 8.1 mph - N/A   Overcast
9:56 AM -16.6 °F -32.9 °F -25.6 °F 64% 29.71 in 5.0 mi NE 6.9 mph - N/A   Overcast
10:16 AM -16.6 °F -32.9 °F -25.6 °F 64% 29.71 in 5.0 mi NE 6.9 mph - N/A   Overcast
10:36 AM -16.6 °F -34.4 °F -25.6 °F 64% 29.72 in 5.0 mi NNE 8.1 mph - N/A   Overcast
10:56 AM -16.6 °F -32.9 °F -27.4 °F 58% 29.72 in 7.0 mi NE 6.9 mph - N/A   Overcast
11:16 AM -16.6 °F -34.4 °F -25.6 °F 64% 29.73 in 4.0 mi NE 8.1 mph - N/A   Overcast
11:36 AM -16.6 °F -32.9 °F -27.4 °F 58% 29.73 in 5.0 mi NE 6.9 mph - N/A   Overcast
11:56 AM -16.6 °F -32.9 °F -25.6 °F 64% 29.74 in 4.0 mi NE 6.9 mph - N/A   Overcast
12:16 PM -16.6 °F -32.9 °F -27.4 °F 58% 29.74 in 3.0 mi NE 6.9 mph - N/A   Overcast
12:36 PM -16.6 °F -35.7 °F -27.4 °F 58% 29.75 in 2.0 mi NE 9.2 mph - N/A   Overcast
12:56 PM -16.6 °F -34.4 °F -27.4 °F 58% 29.75 in 2.0 mi NE 8.1 mph - N/A   Overcast
1:16 PM -16.6 °F -32.9 °F -25.6 °F 64% 29.75 in 2.5 mi NNE 6.9 mph - N/A   Overcast
1:36 PM -14.8 °F -30.8 °F -25.6 °F 58% 29.76 in 3.0 mi NNE 6.9 mph - N/A   Overcast
1:56 PM -14.8 °F -29.1 °F -25.6 °F 58% 29.76 in 4.0 mi NNE 5.8 mph - N/A   Overcast
2:16 PM -14.8 °F -27.2 °F -25.6 °F 58% 29.76 in 5.0 mi NNE 4.6 mph - N/A   Overcast
2:36 PM -14.8 °F -27.2 °F -25.6 °F 58% 29.76 in 5.0 mi North 4.6 mph - N/A   Overcast
2:56 PM -14.8 °F -29.1 °F -25.6 °F 58% 29.76 in 4.0 mi NNE 5.8 mph - N/A   Overcast
3:16 PM -14.8 °F -29.1 °F -25.6 °F 58% 29.77 in 5.0 mi North 5.8 mph - N/A   Overcast
3:36 PM -14.8 °F -30.8 °F -25.6 °F 58% 29.77 in 7.0 mi NNE 6.9 mph - N/A   Overcast
3:56 PM -14.8 °F -32.2 °F -25.6 °F 58% 29.77 in 8.0 mi NNE 8.1 mph - N/A   Overcast
4:16 PM -14.8 °F -30.8 °F -25.6 °F 58% 29.78 in 5.0 mi NNE 6.9 mph - N/A   Overcast
4:36 PM -14.8 °F -30.8 °F -25.6 °F 58% 29.78 in 7.0 mi NNE 6.9 mph - N/A   Overcast
4:56 PM -14.8 °F -30.8 °F -25.6 °F 58% 29.78 in 5.0 mi NNE 6.9 mph - N/A   Overcast
5:16 PM -14.8 °F -30.8 °F -25.6 °F 58% 29.78 in 5.0 mi NNE 6.9 mph - N/A   Overcast
5:36 PM -14.8 °F -32.2 °F -25.6 °F 58% 29.78 in 5.0 mi NNE 8.1 mph - N/A   Overcast
5:56 PM -14.8 °F -30.8 °F -25.6 °F 58% 29.78 in 6.0 mi NNE 6.9 mph - N/A   Overcast
6:16 PM -14.8 °F -30.8 °F -25.6 °F 58% 29.79 in 7.0 mi NE 6.9 mph - N/A   Overcast
6:36 PM -14.8 °F -32.2 °F -25.6 °F 58% 29.79 in 5.0 mi NNE 8.1 mph - N/A   Overcast
6:56 PM -14.8 °F -34.6 °F -25.6 °F 58% 29.79 in 4.0 mi NNE 10.4 mph - N/A   Overcast
7:16 PM -14.8 °F -33.5 °F -25.6 °F 58% 29.80 in 3.0 mi NNE 9.2 mph - N/A   Overcast
7:36 PM -14.8 °F -33.5 °F -25.6 °F 58% 29.80 in 2.0 mi NNE 9.2 mph - N/A   Overcast
7:56 PM -14.8 °F -32.2 °F -25.6 °F 58% 29.80 in 1.5 mi NNE 8.1 mph - N/A   Overcast
8:16 PM -16.6 °F -32.9 °F -25.6 °F 64% 29.80 in 1.2 mi NNE 6.9 mph - N/A   Overcast
8:36 PM -16.6 °F -32.9 °F -25.6 °F 64% 29.81 in 1.5 mi NNE 6.9 mph - N/A   Overcast
8:56 PM -16.6 °F -32.9 °F -25.6 °F 64% 29.81 in 1.5 mi NNE 6.9 mph - N/A   Overcast
9:16 PM -16.6 °F -32.9 °F -27.4 °F 58% 29.81 in 2.0 mi NE 6.9 mph - N/A   Overcast
9:36 PM -16.6 °F -31.3 °F -27.4 °F 58% 29.81 in 3.0 mi NNE 5.8 mph - N/A   Overcast
9:56 PM -16.6 °F -29.3 °F -27.4 °F 58% 29.81 in 3.0 mi NNE 4.6 mph - N/A   Overcast
10:16 PM -18.4 °F -33.4 °F -27.4 °F 63% 29.81 in 4.0 mi NNE 5.8 mph - N/A   Overcast
10:36 PM -18.4 °F -28.9 °F -27.4 °F 63% 29.80 in 5.0 mi NE 3.5 mph - N/A   Overcast
10:56 PM -18.4 °F -33.4 °F -29.2 °F 58% 29.81 in 5.0 mi NNE 5.8 mph - N/A   Overcast
11:16 PM -18.4 °F -31.4 °F -27.4 °F 63% 29.81 in 3.0 mi NNE 4.6 mph - N/A   Overcast
11:36 PM -18.4 °F -31.4 °F -27.4 °F 63% 29.81 in 4.0 mi NNE 4.6 mph - N/A   Overcast
11:56 PM -18.4 °F -33.4 °F -27.4 °F 63% 29.81 in 2.5 mi NNE 5.8 mph - N/A   Overcast